Torna al catalogo

KORSAT-2

AttivoScienzaVLEO
NORAD 62377·PAYLOAD·🇰🇷 South Korea

Lanciato Dec 21, 2024 da Vandenberg Space Force Base

Loading…

Prossimi Passaggi (prossime 24 ore)

TLE

AggiornatoSource: Space-Track

Epoca: Sep 14, 2026, 05:53 UTC

1 62377U 24247A   26257.24558645  .00002252  00000-0  20283-3 0  9994
2 62377  45.4116 326.1219 0002236 307.6880  52.3795 14.98769345 94928

Traccia KORSAT-2 in tempo reale con AllMySat

Download on the App Store